Regional Weather Roundup
Issued by NWS Wakefield, VA

Home | Current Version | Previous Version | Graphics & Text | Print | Product List | Glossary On
Versions: 1 2 3 4 5 6 7 8 9 10 11 12 13 14 15 16 17 18 19 20 21 22 23 24 25 26 27 28 29 30 31 32 33 34 35 36 37 38 39 40 41 42 43 44 45 46 47 48 49 50
000
ASUS41 KAKQ 231510
RWRAKQ

REGIONAL WEATHER ROUNDUP
NATIONAL WEATHER SERVICE WAKEFIELD VA
1100 AM EDT SAT AUG 23 2014

Note: "fair" indicates few or no clouds below 12,000 feet with no
significant weather and/or obstructions to visibility. * = Denotes
station may not report precipitation (e.g., rain,snow,etc.),
thunder or fog.

VAZ042-051-052>054-056-231600-
NORTHERN VIRGINIA

CITY           SKY/WX    TMP DP  RH WIND       PRES   REMARKS
WASH NATIONAL  CLOUDY    75  66  73 NE7       30.04S
DULLES         CLOUDY    70  66  87 E6        30.04R
FORT BELVOIR   DRIZZLE   72  66  83 S2        30.04S
QUANTICO       RAIN      71  67  87 E7        30.04S FOG
FREDERICKSBRG* PTSUNNY   76  70  82 E5        30.01S
STAFFORD*      CLOUDY    72  72 100 E6        30.07R
WARRENTON      CLOUDY    73  72  97 E8        30.03S
CULPEPER*      CLOUDY   N/A N/A N/A CALM      30.03S
MANASSAS*      NOT AVBL
LEESBURG*      CLOUDY    70  68  94 SE5       30.05S
WINCHESTER     CLOUDY    70  68  94 E7        30.03R
$$

VAZ048-049-060>072-079>083-231600-
CENTRAL AND SOUTH CENTRAL VIRGINIA...AND NORTH CENTRAL NORTH CAROLINA

CITY           SKY/WX    TMP DP  RH WIND       PRES   REMARKS
RICHMOND       LGT RAIN  76  70  82 E6        30.01R
CHESTERFIELD*  CLOUDY   N/A N/A N/A E6        30.02S
HANOVER        CLOUDY    74  70  87 CALM      30.03S
TAPPAHANNOCK*  PTSUNNY   78  66  65 E5        30.02S
CHARLOTTSVILLE CLOUDY    73  69  87 SE5       30.02S
ORANGE*        CLOUDY    72  68  88 NE3       30.04R
LOUISA*        CLOUDY    73  70  88 E5        30.01S
FARMVILLE*     DRIZZLE   75  73  94 E3        29.99S
SOUTH HILL*    HVY RAIN  73  73 100 CALM      30.06R
ROANOKE RAPIDS CLOUDY    77  72  83 E3        29.99S
RALEIGH        PTSUNNY   81  70  69 E6        29.98S
$$

VAZ088>098-231600-
SOUTHEAST VIRGINIA

CITY           SKY/WX    TMP DP  RH WIND       PRES   REMARKS
NORFOLK        PTSUNNY   77  69  76 E15       29.99R
VIRGINIA BEACH CLOUDY    77  69  76 E8        29.99R
NORFOLK NAVAL  CLOUDY    78  70  76 E15       30.01R
WEST POINT*    PTSUNNY   82  69  65 E7        30.01S
NEWPORT NEWS   CLOUDY    80  70  71 E12       29.99S
LANGLEY AFB    PTSUNNY   77  71  82 E10       29.99S
FORT EUSTIS    DRIZZLE   77  68  73 E7        29.98S
WILLIAMSBURG*  MOSUNNY   79  73  83 CALM      30.01R
FRANKLIN*      CLOUDY    75  72  88 NE5       30.00R
WAKEFIELD      CLOUDY    78  71  79 NE3       30.00R
$$

VAZ020-022-025-037-045-231600-
WESTERN AND SOUTHWEST VIRGINIA

CITY           SKY/WX    TMP DP  RH WIND       PRES   REMARKS
STAUNTON*      CLOUDY    73  68  83 S3        30.05R
HOT SPRINGS VA CLOUDY    68  65  89 N3        30.16R
LYNCHBURG      CLOUDY    74  71  91 CALM      30.03R FOG
DANVILLE       CLOUDY    77  72  84 NE5       30.00R
MARTINSVILLE   CLOUDY    81  71  71 N3        30.03S
ROANOKE        CLOUDY    77  69  76 CALM      30.04R
BLACKSBURG     CLOUDY    75  72  88 CALM      30.09S
DUBLIN*        CLOUDY    76  70  83 N3        30.09R
MARION*        CLOUDY   N/A N/A N/A SW6       30.13S
HILLSVILLE*    CLOUDY    72  68  87 NW5       30.11R
RICHLANDS*     CLOUDY    73  71  94 CALM      30.12R FOG
WISE*          CLOUDY    73  72  94 NW5       30.13R
ABINGDON*      CLOUDY    76  72  89 W6        30.09R
$$

MDZ021>025-VAZ099-100-231600-
SOUTHERN MARYLAND AND THE DELMARVA PENINSULA

CITY           SKY/WX    TMP DP  RH WIND       PRES   REMARKS
PATUXENT RIVER PTSUNNY   76  66  71 E8        30.02R
BAY BRIDGE APT LGT RAIN  72  66  83 E8        30.04R
LEONARDTOWN    PTSUNNY   75  61  60 SE3       30.04R
DOVER          PTSUNNY   75  68  78 E15       30.03R
GEORGETOWN     PTSUNNY   77  66  68 E18G26    30.03S
EASTON         CLOUDY    75  72  88 CALM      30.07R
CAMBRIDGE      PTSUNNY   77  64  65 E6        30.02S
SALISBURY      PTSUNNY   79  66  64 NE9       30.01S
OCEAN CITY     CLOUDY    77  69  76 E12G21    30.01S
WALLOPS ISLAND MOSUNNY   79  69  71 E15       30.02R
ACCOMACK*      MOSUNNY   77  64  65 E7        30.01R
$$

NCZ012>017-030>032-231600-
EASTERN NORTH CAROLINA

CITY           SKY/WX    TMP DP  RH WIND       PRES   REMARKS
ELIZABETH CITY PTSUNNY   80  71  74 NE9       29.98R
AHOSKIE*       MOSUNNY   78  71  80 E3        29.99R
EDENTON*       MOSUNNY   80  72  77 NE5       29.97F
CURRITUCK*     CLOUDY    79  69  72 NE6       29.99S
KILL DEVIL HLS CLOUDY    81  72  73 NE6       29.96F
MANTEO         MOSUNNY   81  72  74 NE12      29.97F
CAPE HATTERAS  PTSUNNY   81  71  71 VRB3      29.96S
GOLDSBORO      MOSUNNY   82  78  87 E9        29.94F
WASHINGTON     PTSUNNY   78  73  83 E6        29.98S
GREENVILLE     MOSUNNY   79  73  83 E6        29.99S
NEW BERN       PTSUNNY   82  73  74 E7        29.97S
WILMINGTON     PTSUNNY   83  77  82 VRB6      29.94R
$$

VAZ048-231600-
ELSEWHERE

CITY           SKY/WX    TMP DP  RH WIND       PRES   REMARKS
HARRISBURG PA  CLOUDY    70  62  76 E10       30.06S
BALTIMORE      CLOUDY    71  66  84 E10       30.04S
ANNAPOLIS      LGT RAIN  72  66  81 NE5       30.04R
ANDREWS AFB    MOSUNNY   71  68  90 E6        30.04R
WILMINGTON DE  LGT RAIN  72  65  78 NE14      30.07R
PHILADELPHIA   RAIN      69  64  84 NE7       30.08R
WILDWOOD NJ*   PTSUNNY   75  63  64 NE13G20   30.05S
ATLANTIC CITY  PTSUNNY   73  63  70 NE13G21   30.06R
HENDERSON NC   CLOUDY    76  70  82 E6        30.00S
GREENSBORO     PTSUNNY   80  73  79 NE8       30.00R
ROCKY MOUNT    LGT RAIN  77  74  90 E3        29.98S FOG
FAYETTEVILLE   PTSUNNY   83  73  72 VRB5      29.95S
CHARLOTTE      PTSUNNY   84  68  58 N3        29.99S
$$

VAZ100-231600-
MARINE

STATION/POSITION TIME  TEMP    WIND        PRES    WAVE   SWELL
                       AIR SEA DIR/SP/G            HT/PER HT/PER
                 (UTC) (F)     (DEG/KT/KT) (MB)    (FT/S) (FT/S)
44066 TX TWR #4  1500   70 72   60/ 17/ 19 1017.2R   6/ 7
CAPE MAY NJ      1500   74 79   80/ 12/ 19 1016.6S
LEWES DE         1500   73 75   90/ 16/ 19 1016.5S
15NM E FENWICK I 1500   74 75              1016.2R   4/ 6
OCEAN-CITY-INLET 1500   75 76   90/ 11/ 16 1016.0S
WACHAPREAGUE VA  1500   76 79   50/  9/ 13 1016.1S
THOMAS POINT MD  1500   72 78   90/  5/  7 1017.6R
GOOSES REEF MD   1500   74     110/  8/ 10 1017.1S
COVE POINT MD    1500   73     140/  4/  7 1016.5R
SOLOMONS ISLAND  1500      79                N/A
BISHOPS HEAD MD  1500   75 76   80/  9/ 10 1015.9F
PINEY POINT MD   1500          120/  9/ 10   N/A
POTOMAC MD       1500   74     100/ 10/ 12 1015.5F
CAMBRIDGE MD     1500   74 79   80/  7/ 11 1016.2F
LEWISETTA VA     1500   74 78   90/ 10/ 11 1015.9R
RAPPAHANNOCK LGT 1500           60/  9/ 11 1016.5S
STINGRAY PT      1500   75      90/  8/ 10 1016.6R
YORK RVR RNG VA  1500   76      90/ 10/ 11 1015.2F
YORKTOWN VA      1500   76 81   70/ 10/ 11 1015.4F
JAMESTOWN VA     1500   75      90/  4/ 10   N/A
DOMINION TERM VA 1500   77      80/  3/  5 1015.7S
KIPTOPEKE VA     1500      82   80/  9/ 12   N/A
CHES BAY BRIDGE  1500   75 75   50/ 13/ 15 1015.1F
CAPE HENRY VA    1500   76      70/ 13/ 15 1014.4R
CHESAPEAKE LGHT  1400   75      60/ 15/ 16 1016.0R
WILLOUBY STN VA  1500   76      90/ 11/ 13 1014.4S
S CRANEY ISL VA  1500           50/ 11/ 13 1015.3R
CAPE HENRY BUOY  1500      78                N/A     3/ 5
1ST LANDING BUOY 1500   76      60/ 14/ 16 1015.4R
CAPE CHARLES BUO 1500      77                N/A     3/ 5
OFFSHORE WE BUOY 1500      78                N/A     3/ 4
64NM E OF VA BCH 1500   77 78   60/ 10/ 12 1014.9R   3/ 7   2/ 7
DUCK PIER NC     1500   78 80   60/ 11/ 12 1014.5S
44056 DUCK FRF   1500                        N/A     2/ 8
OREGON INLET NC  1500   80 81   40/ 10/ 12 1014.8S
HATTERAS NC      1500   80 81   40/  6/  9 1015.1S
DIAMOND SHLS NC  1500   78     350/  8/ 10 1014.2R   2/ 8   2/ 8
CAPE LOOKOUT NC  1400   78      80/  5/  6 1014.2R
$$



USA.gov is the U.S. government's official web portal to all federal, state and local government web resources and services.